SV7BVZ Weather Reports


time (UTC)temp
C
wind
direction
speed
KPH
gust
KPH
rain 1hr
cm
rain 24hr
cm
rain mn
cm
humidity
%
barometer
mb
20260507150006 19 180 4.8 19.3 0.00 0.00 0.00 74 1016.9
20260507140007 21 210 8.0 19.3 0.00 0.00 0.00 64 1017.3
20260507130005 22 225 8.0 27.4 0.00 0.00 0.00 58 1017.6
20260507120007 23 225 8.0 24.1 0.00 0.00 0.00 57 1017.8
20260507110008 23 192 9.7 24.1 0.00 0.00 0.00 57 1017.7
20260507100005 23 225 8.0 20.9 0.00 0.00 0.00 57 1017.4
20260507080005 21 225 4.8 14.5 0.00 0.00 0.00 65 1017.4
20260507070009 20 0 0.0 8.0 0.00 0.00 0.00 63 1017.5
20260507060005 18 90 0.0 0.0 0.00 0.00 0.00 58 1017.5
20260507040005 9 90 0.0 0.0 0.00 0.00 0.00 84 1016.4
20260507030005 11 45 0.0 4.8 0.00 0.00 0.00 78 1016.0
20260507020007 9 90 0.0 1.6 0.00 0.00 0.00 86 1015.9
20260507000005 9 45 0.0 3.2 0.00 0.00 0.00 84 1015.9
20260506230005 10 90 0.0 3.2 0.00 0.00 0.00 84 1016.1
20260506220005 11 90 0.0 3.2 0.00 0.00 0.00 83 1016.4
20260506210004 12 90 0.0 4.8 0.00 0.00 0.00 80 1016.4
20260506200005 13 45 0.0 4.8 0.00 0.00 0.00 77 1015.9
20260506190005 15 90 1.6 4.8 0.00 0.00 0.00 76 1015.8
20260506180005 15 180 0.0 1.6 0.00 0.00 0.00 80 1015.1
20260506160005 19 225 6.4 16.1 0.00 0.00 0.00 59 1015.1